Погода Верховье Лотты

Погода Верховье Лотты : погода сейчас, прогноз погоды и архив. Всё, что Вы хотите узнать о погоде Верховье Лотты!

Поиск расширенной информации на нашем сайте:

Другие новости

Новости СМИ2

Главная страница сайта

Новости сайта

03.07.2017

Напоминаем, что на нашем специализированном сайте Метеоцентр.Азия вы можете получить высокодетализированные автоматические прогнозы погоды по пунктам России, СНГ и мира в авиационном формате (включающие направление и скорость ветра, видимость, явления погоды, количество и форму облачности, нижнюю и верхнюю границу облачности).


Погода Верховье Лотты - сегодня

Время (UTC), дата Ветер
(°,м/с) 
Видим.   Явления Облачность Т
(°С)
Тd
(°С)
f(%) Тe
(°С)
Pmin
(гПа)
dP
(гПа)
Po
(мм)
O2
(г/м3)
Тmin Tmax R s Состояние
почвы
03 13.06.18 тихо ()   н/о    н/о 
+3.5 +0.3 80 +4  1007.2  0.3  745  296  -1.2         
09 13.06.18 020 (С) 2-5  н/о    н/о 
+6.2 -1.5 58 +6  1008.5  0.9  746  294           
12 13.06.18 020 (С) 2-5  н/о    н/о 
+8.8 -3.1 43 +9  1008.9  0.5  746  292           
15 13.06.18 350 (С) 1-4  н/о    н/о 
+8.5 -3.4 43 +10  1009.7  0.8  747  292           
21 13.06.18 тихо ()   н/о    н/о 
+4.2 +1.2 81 +4  1011.9  1.1  748  297           
00 14.06.18 тихо ()   н/о    н/о 
+3.4 +1 84 +3  1012.6  0.6  749  298           
09 14.06.18 190 (Ю) 1-3  н/о    н/о 
+14 -3.1 30 +15  1012.1  -0.5  749  287           
12 14.06.18 210 (ЮЗ) 2-4  н/о    н/о 
+14.9 -2.7 30 +16  1011.1  -0.9  748  286           
15 14.06.18 190 (Ю) 3-6  н/о    н/о 
+14.7 -2.6 30 +15  1010.5  -0.6  748  286           
21 14.06.18 160 (Ю) 1-2  н/о    н/о 
+10.7 -0.7 45 +12  1009.9  -0.4  747  290           
00 15.06.18 080 (В) 1-2  н/о    н/о 
+9.6 +0.3 52 +11  1009.3  -0.7  746  290           
09 15.06.18 150 (ЮВ) 2-6  н/о    н/о 
+13 +5.8 62 +13  1005.6  -0.5  744  285           
15 15.06.18 180 (Ю) 3-9  н/о    н/о 
+17.9 +9 56 +18  1004.4  -0.7  743  279           
21 15.06.18 180 (Ю) 1-3{10}  н/о    н/о 
+15.4 +7.7 60 +17  1005  0.6  744  282           
00 16.06.18 220 (ЮЗ) 2-6  н/о    н/о 
+14 +5.5 57 +15  1006.4  1.3  745  284           
09 16.06.18 230 (ЮЗ) 3-9{16}  н/о    н/о 
+20.3 +3 32 +20  1009.8  0.8  747  280           
18 16.06.18 260 (З) 1-4{11}  40000 м  слаб. ливневой дождь  10/0 
[]
+12 +8.6 80 +13  1012.8  2.1  749  288    +22.3  0.0     
21 16.06.18 230 (ЮЗ) 1-2  н/о    н/о 
+7.9 +6.1 88 +9  1013.1  0.2  749  292           
00 17.06.18 тихо ()   н/о    н/о 
+5.1 +4.8 98 +5  1014.2  0.9  750  296           
09 17.06.18 250 (З) 2-5  н/о    н/о 
+20.1 +0.6 27 +20  1016  0.4  752  282           
12 17.06.18 250 (З) 2-4  н/о    н/о 
+21.3 -0.5 23 +21  1016.2  0.3  752  281           
15 17.06.18 270 (З) 1-4  н/о    н/о 
+21.4 -1.5 21 +21  1016.4  0.2  752  281           
21 17.06.18 070 (В) 1-3  н/о    н/о 
+12.8 +6.4 65 +14  1017.5  0.7  753  289           
00 18.06.18 060 (СВ) 1-2  н/о    н/о 
+7.3 +5.1 86 +8  1017.2  0.7  752  294           
09 18.06.18 090 (В) 2-5  н/о    н/о 
+20.4 +8.3 46 +20  1008.6  -3.5  746  278           
Время (UTC), дата Ветер
(°,м/с) 
Видим.   Явления Облачность Т
(°С)
Тd
(°С)
f(%) Тe
(°С)
Pmin
(гПа)
dP
(гПа)
Po
(мм)
O2
(г/м3)
Тmin Tmax R s Состояние
почвы

Для получения пояснительной информации подведите курсор к названию столбца.

ПОГОДА Верховье Лотты - архив

Всё, что Вы хотите узнать о погоде Верховье Лотты - удобно и подробно!

Выберите нужную дату (начиная с 1 января 2015* года) и нажмите кнопку "Найти".
Будут отображены архивные сводки погоды по пункту Верховье Лотты, начиная с указанной даты.


Отображать данные в формате CSV (для использования в таблицах Excel)


Внимание! Наш архив погоды предназначен исключительно для личного некоммерческого использования в познавательных целях. Если Вам необходимы официальные справки о состоянии погоды (для производственных, юридических, коммерческих и т.п. целей), обращайтесь в органы Росгидромета.

*Примечание: данная дата относится к архиву по метеостанциям СССР (Россия, СНГ, Балтия).
Архив по метеостанциям Зарубежной Европы и Азии (кроме Китая) хранится 10 дней, по другим регионам земного шара (Китай, Африка, Америка, Австралия, Океания) - 1 день.

Верховье Лотты - район местоположения метеостанции


Название, широта, долгота, высота метеостанции:
Верховье Лотты 68.4°ш. 28.7°д. 120 м над ур. моря [Российская Федерация]

Дополнительная информация

В oтличие oт бoльшинства пoгoдных сайтoв мы публикуем пoдрoбную метеoинфoрмацию в детальнoм прoфессиoнальнoм фoрмате.

Характеристики температуры и влажнoсти вoздуха измеряются на высoте 2 м в тени вдали oт зданий и деревьев.
Скoрoсть ветра измеряется на высoте 10 м (на урoвне рoста челoвека скoрoсть ветра ниже в 1.5-2 раза). Если метеoстанция нахoдится в гoрoде или в лесу, тo скoрoсть ветра занижена на 2-4 м/с пo сравнению с oткрытым местoм. Скoрoсть ветра над акватoриями крупных рек и oзёр, а также на вершинах хoлмoв на 2-5 м/с выше, чем в oбычных услoвиях.
Атмoсфернoе давление в разных тoчках местнoсти мoжет значительнo oтличаться oт давления на метеoстанции, в зависимoсти oт услoвий рельефа (при пoдъёме на 10 м давление пoнижается примернo на 1 мм рт.ст.).